Regional Weather Roundup
Issued by NWS

Home | Current Version | Previous Version | Text Only | Print | Product List | Glossary Off
Versions: 1 2 3 4 5 6 7 8 9 10 11 12 13 14 15 16 17 18 19 20 21 22 23 24 25 26 27 28 29 30 31 32 33 34 35 36 37 38 39 40 41 42 43 44 45 46 47 48 49 50

000
ASUS43 KLSX 250207
RWRMO

WEATHER SUMMARY FOR MISSOURI
NATIONAL WEATHER SERVICE SPRINGFIELD MO
900 PM CDT TUE MAY 24 2016

NOTE: "FAIR" INDICATES FEW OR NO CLOUDS BELOW 12,000 FEET WITH NO
       SIGNIFICANT WEATHER AND/OR OBSTRUCTIONS TO VISIBILITY.
       CURRENT SKY AND/OR WEATHER CONDITIONS ARE NOT AVAILABLE FOR
       CHILLICOTHE AND FARMINGTON.

MOZ001>031-035>038-043-044-053-054-250300-
...NORTHERN AND WESTERN MISSOURI...

CITY           SKY/WX    TMP DP  RH WIND       PRES   REMARKS
KANSAS CTY INT CLOUDY    75  65  70 SE8       29.89F
KANSAS C DTWN  CLOUDY    77  65  66 SE6       29.88F
LEE`S SUMMIT   CLOUDY    74  67  78 SE7       29.91F
ST JOSEPH      CLEAR     75  66  73 E8        29.87F
CHILLICOTHE      N/A     71  65  81 CALM      29.93S
KIRKSVILLE     CLOUDY    67  64  90 S7        29.94F

$$
MOZ066>068-077>081-088>096-101>105-250300-
...SOUTHWEST MISSOURI...

CITY           SKY/WX    TMP DP  RH WIND       PRES   REMARKS
SPRINGFIELD    CLOUDY    64  60  87 S15       29.97F
JOPLIN         CLOUDY    71  66  84 SE13G22   29.89F
BRANSON        CLOUDY    63  63 100 SE12      30.03S

$$
MOZ032>034-039>042-045>050-055>058-069>072-250300-
...CENTRAL MISSOURI...

CITY           SKY/WX    TMP DP  RH WIND       PRES   REMARKS
COLUMBIA       CLOUDY    66  65  96 SE6       29.97F
JEFFERSON CITY MOCLDY    67  62  84 SE3       29.97S
ROLLA          CLOUDY    62  61  96 S3        29.99R
SEDALIA        CLOUDY    71  63  75 SE9       29.96S
WHITEMAN AFB   MOCLDY    72  64  76 S10       29.93S
WARRENSBURG    CLOUDY    72  63  73 SE9       29.92S

$$
MOZ051-052-059>065-250300-
...EAST CENTRAL MISSOURI...

CITY           SKY/WX    TMP DP  RH WIND       PRES   REMARKS
ST LOUIS INTL  CLOUDY    71  61  70 S3        30.00R
SPIRIT OF STL  CLOUDY    67  63  87 CALM      29.98R
ST CHARLES     CLOUDY    70  62  76 S5        29.97R

$$
MOZ072>076-082>087-097>100-106>115-250300-
...SOUTH CENTRAL AND SOUTHEAST MISSOURI...

CITY           SKY/WX    TMP DP  RH WIND       PRES   REMARKS
CAPE GIRARDEAU CLOUDY    68  64  87 W8        29.99R
FARMINGTON     CLOUDY    65  62  90 CALM      30.02R
POPLAR BLUFF   MOCLDY    68  61  78 W10       30.00R
WEST PLAINS    CLOUDY    63  60  90 CALM      30.06R

$$



USA.gov is the U.S. government's official web portal to all federal, state and local government web resources and services.